DW9497 Weather Reports


time (UTC)temp
C
wind
direction
speed
KPH
gust
KPH
rain 1hr
cm
rain 24hr
cm
rain mn
cm
humidity
%
barometer
mb
20260506031551 6 86 0.0 1.6 0.00 0.00 0.00 80 1015.2
20260506030051 6 81 0.0 1.6 0.00 0.00 0.00 81 1015.2
20260506024549 6 350 0.0 1.6 0.00 0.00 0.00 81 1015.1
20260506023106 6 351 0.0 0.0 0.00 0.00 0.00 81 1015.1
20260506021548 6 352 0.0 1.6 0.00 0.00 0.00 80 1015.0
20260506020047 6 348 0.0 1.6 0.00 0.00 0.00 80 1015.0
20260506014544 7 351 0.0 1.6 0.00 0.00 0.00 81 1015.0
20260506013043 7 350 0.0 1.6 0.00 0.00 0.00 81 1015.1
20260506011540 7 351 0.0 0.0 0.00 0.00 0.00 81 1015.3
20260506010048 7 348 0.0 0.0 0.00 0.00 0.00 81 1015.3
20260506004559 7 349 0.0 1.6 0.00 0.00 0.00 80 1015.3
20260506003046 7 30 0.0 1.6 0.00 0.00 0.00 80 1015.4
20260506001539 7 29 0.0 0.0 0.00 0.00 0.00 80 1015.4
20260506000034 7 28 0.0 1.6 0.00 0.00 0.00 79 1015.3
20260505234554 7 30 0.0 1.6 0.00 0.00 0.00 79 1015.2
20260505233036 7 26 0.0 1.6 0.00 0.00 0.00 78 1015.2
20260505231533 7 132 0.0 1.6 0.00 0.00 0.00 78 1015.3
20260505230036 7 46 0.0 3.2 0.00 0.00 0.00 77 1015.2
20260505224527 8 323 0.0 3.2 0.00 0.00 0.00 77 1015.2
20260505223026 8 226 0.0 1.6 0.00 0.00 0.00 77 1015.2
20260505221526 8 62 0.0 1.6 0.00 0.00 0.00 76 1015.3
20260505220038 8 333 0.0 3.2 0.00 0.00 0.00 77 1015.2
20260505214532 8 344 0.0 4.8 0.00 0.00 0.00 78 1015.2
20260505213026 8 335 0.0 1.6 0.00 0.00 0.00 78 1015.1
20260505211525 9 32 0.0 3.2 0.00 0.00 0.00 77 1015.0
20260505210023 9 14 0.0 0.0 0.00 0.00 0.00 77 1014.9
20260505204522 9 38 0.0 4.8 0.00 0.00 0.00 76 1014.9
20260505203022 10 354 0.0 1.6 0.00 0.00 0.00 75 1014.8
20260505201524 10 1 0.0 1.6 0.00 0.00 0.00 75 1014.8
20260505200022 10 316 0.0 3.2 0.00 0.00 0.00 75 1014.6
20260505194531 10 19 1.6 4.8 0.00 0.00 0.00 73 1014.5
20260505193033 10 292 1.6 3.2 0.00 0.00 0.00 73 1014.4
20260505191518 10 294 1.6 4.8 0.00 0.00 0.00 73 1014.3
20260505190017 10 309 1.6 3.2 0.00 0.00 0.00 73 1014.2
20260505184517 10 21 3.2 8.0 0.00 0.00 0.00 72 1014.3
20260505183018 10 23 1.6 6.4 0.00 0.00 0.00 73 1014.3
20260505181517 10 17 1.6 6.4 0.00 0.00 0.00 71 1014.2
20260505180015 11 332 3.2 8.0 0.00 0.00 0.00 69 1014.2
20260505174526 11 331 1.6 8.0 0.00 0.00 0.00 71 1014.2
20260505173014 11 319 3.2 8.0 0.00 0.00 0.00 70 1014.1
20260505171515 12 11 1.6 8.0 0.00 0.00 0.00 71 1014.1
20260505170023 11 297 3.2 8.0 0.00 0.00 0.00 70 1014.3
20260505164516 12 15 3.2 6.4 0.00 0.00 0.00 69 1014.3
20260505163009 12 322 1.6 8.0 0.00 0.00 0.00 69 1014.2
20260505161510 12 313 1.6 6.4 0.00 0.00 0.00 66 1014.2
20260505153008 12 303 1.6 6.4 0.00 0.00 0.00 69 1014.2
20260505151506 11 304 1.6 4.8 0.00 0.00 0.00 70 1014.2
20260505124600 12 335 1.6 9.7 0.00 0.00 0.00 68 1014.3
20260505123115 12 6 1.6 9.7 0.00 0.00 0.00 68 1014.4
20260505121559 12 25 3.2 9.7 0.00 0.00 0.00 66 1014.3
20260505120057 12 16 3.2 8.0 0.00 0.00 0.00 69 1014.4
20260505114611 11 12 4.8 8.0 0.00 0.00 0.00 73 1014.5
20260505113052 11 16 1.6 8.0 0.00 0.00 0.00 75 1014.7
20260505111603 10 22 3.2 8.0 0.00 0.00 0.00 78 1014.8
20260505101545 11 328 3.2 8.0 0.00 0.00 0.00 74 1014.8
20260505100041 11 302 1.6 6.4 0.00 0.00 0.00 77 1014.7
20260505094542 10 313 1.6 6.4 0.00 0.00 0.00 79 1014.8
20260505093039 10 20 1.6 9.7 0.00 0.00 0.00 80 1014.8
20260505091537 10 331 1.6 4.8 0.00 0.00 0.00 82 1014.8
20260505090044 10 17 1.6 4.8 0.00 0.00 0.00 83 1014.8
20260505084535 10 333 0.0 3.2 0.00 0.00 0.00 86 1014.8
20260505083040 10 12 1.6 3.2 0.00 0.00 0.00 86 1014.9
20260505081533 10 295 0.0 3.2 0.00 0.00 0.00 86 1015.0
20260505080035 9 15 1.6 4.8 0.00 0.00 0.00 86 1015.0
20260505074524 9 6 1.6 8.0 0.00 0.00 0.00 89 1014.9
20260505073022 9 6 1.6 6.4 0.00 0.00 0.00 92 1014.9
20260505071520 8 15 1.6 4.8 0.00 0.00 0.00 93 1014.8
20260505070017 8 349 0.0 1.6 0.00 0.00 0.00 94 1014.8
20260505064513 7 345 0.0 1.6 0.00 0.00 0.00 94 1015.0
20260505063012 7 346 0.0 1.6 0.00 0.00 0.00 94 1015.1
20260505061520 6 349 0.0 1.6 0.00 0.00 0.00 94 1015.1
20260505060013 6 348 0.0 0.0 0.00 0.00 0.00 95 1015.1
20260505054510 5 349 0.0 0.0 0.00 0.00 0.00 94 1015.1
20260505053010 5 349 0.0 0.0 0.00 0.00 0.00 94 1015.1
20260505051507 4 351 0.0 0.0 0.00 0.00 0.00 93 1014.9
20260505041615 5 351 0.0 0.0 0.00 0.00 0.00 93 1014.7
20260505040100 6 349 0.0 0.0 0.00 0.00 0.00 93 1014.6
20260505034604 6 351 0.0 1.6 0.00 0.00 0.00 93 1014.6
20260505033058 6 355 0.0 1.6 0.00 0.00 0.00 93 1014.7